Regional Weather Roundup
Issued by NWS Northern Indiana

Home | Current Version | Previous Version | Graphics & Text | Print | Product List | Glossary On
Versions: 1 2 3 4 5 6 7 8 9 10 11 12 13 14 15 16 17 18 19 20 21 22 23 24 25 26 27 28 29 30 31 32 33 34 35 36 37 38 39 40 41 42 43 44 45 46 47 48 49 50
241
ASUS43 KIWX 081510
RWRIWX

KIWX WEATHER ROUNDUP
NATIONAL WEATHER SERVICE NORTHERN INDIANA
1000 AM EST MON FEB 08 2016

NOTE: "FAIR" INDICATES FEW OR NO CLOUDS BELOW 12,000 FEET WITH NO
SIGNIFICANT WEATHER AND/OR OBSTRUCTIONS TO VISIBILITY.

* THESE STATIONS ARE NOT UNDER NWS QUALITY CONTROL. THEY ALSO MAY NOT
  REPORT WEATHER SUCH AS PRECIPITATION OR FOG.

INZ001>027-081600-
NORTHERN INDIANA

CITY           SKY/WX    TMP DP  RH WIND       PRES   REMARKS
GARY*          CLOUDY    34  28  80 W14       29.65R WCI  24
VALPARAISO     CLOUDY    32  30  92 SW7       29.64S WCI  26
MICHIGAN CITY* CLOUDY    32  32 100 SW5       29.65R WCI  27
LAPORTE*       CLOUDY    33  33 100 SW6       29.64S WCI  27
SOUTH BEND     CLOUDY    31  28  89 SW7       29.64R WCI  24
ELKHART*         N/A     30  28  93 SW5       29.64R WCI  25
GOSHEN         CLOUDY    32  28  85 SW6       29.63S WCI  26
MONTICELLO*    CLOUDY    32  27  80 SW3       29.65F
LOGANSPORT*    PTSUNNY   34  28  80 SW8       29.66S WCI  27
ROCHESTER*     MOSUNNY   36  28  75 SW6       29.65S
WARSAW*        CLOUDY    32  30  93 W3        29.64S
ANGOLA*        MOSUNNY   34  30  86 W5        29.61F WCI  30
FORT WAYNE     PTSUNNY   33  29  85 W9        29.64F WCI  25
HUNTINGTON*    CLOUDY    33  29  85 W7        29.64S WCI  27
PERU/GRISSOM   CLOUDY    34  30  86 W9        29.63S WCI  26
MARION*        CLOUDY    32  27  82 SW5       29.65S WCI  28

$$
INZ028>050-081600-
CENTRAL INDIANA

CITY           SKY/WX    TMP DP  RH WIND       PRES   REMARKS
LAFAYETTE      CLOUDY    32  28  85 SW7       29.67S WCI  26
KOKOMO*          N/A     36  28  75 W12       29.65S
MUNCIE*        CLOUDY    35  31  85 W5        29.64F WCI  31
INDIANAPOLIS   FLURRIES  35  31  85 W13       29.66  WCI  26

$$
MIZ043>046-050>051-056>058-064>065-071>073-077>080-081600-
SOUTHWEST LOWER MICHIGAN

CITY           SKY/WX    TMP DP  RH WIND       PRES   REMARKS
BATTLE CREEK   CLOUDY    31  28  89 SW3       29.62S
BENTON HARBOR  CLOUDY    33  30  88 SW7       29.63R WCI  27
COLDWATER*     MOSUNNY   33  29  88 SW5       29.62S WCI  28
HILLSDALE*     CLOUDY    32  29  87 W5        29.60F WCI  28
HOLLAND        PTSUNNY   33  31  92 CALM      29.62S
GRAND RAPIDS   PTSUNNY   33  30  88 S8        29.61F WCI  26
KALAMAZOO      MOSUNNY   32  27  81 W3        29.62F
STURGIS*       CLOUDY    30  28  92 SW5       29.62S WCI  25
THREE RIVERS*  PTSUNNY   33  32  96 SW5       29.63S WCI  29

$$
OHZ001>008-015>018-024>025-081600-
NORTHWEST OHIO

CITY           SKY/WX    TMP DP  RH WIND       PRES   REMARKS
DEFIANCE       CLOUDY    35  29  78 VRB3      29.63F
FINDLAY        CLOUDY    37  30  75 W8        29.61F
TOLEDO EXPRESS CLOUDY    35  29  78 W8        29.61F WCI  29
TOLEDO METCALF CLOUDY    37  30  75 W9        29.62F
LIMA           SUNNY     37  31  78 W10       29.62S

$$
AND FOR LAKE MICHIGAN COASTAL AND OPEN LAKE BUOY OBSERVATIONS

STATION/POSITION TEMP    WIND        PRES    VSBY  WAVE
                 AIR SEA DIR/SP/G                  HT/PER
                 (F)     (DEG/KT/KT) (MB)    (MI)  (FT/S)
CALUMET HARBOR    32     260/  7/ 12 1003.1R
MICHIGAN CITY     31     200/  8/ 10   N/A
BURNS HARBOR      33     230/ 10/ 12 1004.4R
SAINT JOSEPH      33     180/  9/ 12 1004.4R

$$
&&




USA.gov is the U.S. government's official web portal to all federal, state and local government web resources and services.